Location: La Fredeussais
(48.1780°N, 1.3980°W)
Time: 15:23:28
(UTC+00:00)

Cosmos 1680 Rocket - Pass Details

Date: 09 May 2021
Orbit: 759 x 781 km, 74.1° (Epoch: 23 June)

Event Time Altitude Azimuth Distance (km) Brightness Sun altitude
Rises 23:17:53 0° 331° (NNW) 3,276 8.0 -23.5°
Reaches altitude 10° 23:20:23 10° 325° (NW) 2,345 6.9 -23.5°
Maximum altitude 23:25:20 40° 257° (WSW) 1,136 4.3 -23.7°
Enters shadow 23:26:08 38° 235° (SW) 1,182 4.2 -23.7°
